Weather History for MMLO - July, 2013

Change the Weather History Date:

Friday, July 26, 2013

  Actual Average Record
Temperature  
Mean Temperature 73 °F -  
Max Temperature 87 °F 79 °F 87 °F (2013)
Min Temperature 59 °F 58 °F 57 °F (1999)
Cooling Degree Days 8    
Growing Degree Days 23 (Base 50)    
Moisture  
Dew Point 58 °F    
Average Humidity 64    
Maximum Humidity 94    
Minimum Humidity 33    
Precipitation  
Precipitation 0.00 in - - ()
Sea Level Pressure  
Sea Level Pressure 30.17 in    
Wind  
Wind Speed 3 mph ()    
Max Wind Speed 13 mph    
Max Gust Speed -    
Visibility 8.2 miles    
Events      
Averages and records for this station are not official NWS values.
T = Trace of Precipitation, MM = Missing Value Source: Averaged Metar Reports

Daily Weather History Graph

Daily Weather History Graph

Search for Another Location

Airport or City:

Trip Planner

Search our weather history database for the weather conditions in past years. The results will help you decide how hot, cold, wet, or windy it might be!

Date:

Astronomy

Jul. 26, 2013 Rise Set
Actual Time 7:17 AM CDT 8:26 PM CDT
Civil Twilight 6:53 AM CDT 8:50 PM CDT
Nautical Twilight 6:25 AM CDT 9:19 PM CDT
Astronomical Twilight 5:56 AM CDT 9:48 PM CDT
Moon 11:28 PM CDT (7/26) 11:13 AM CDT (7/26)
Length of Visible Light 13h 57m
Length of Day
13h 09m
Waning Gibbous, 80% of the Moon is Illuminated
Jul 26
Waning Gibbous
Jul 29
Last Quarter
Aug 6
New
Aug 14
First Quarter
Aug 20
Full

Hourly Weather History & Observations

Time (CDT) Temp. Heat Index Dew Point Humidity Pressure Visibility Wind Dir Wind Speed Gust Speed Precip Events Conditions
12:47 AM 64.4 °F - 60.8 °F 88% 29.96 in 8.0 mi South 12.7 mph - N/A   Overcast
3:41 AM 60.8 °F - 57.2 °F 88% 29.94 in 8.0 mi Calm Calm - N/A   Mostly Cloudy
4:46 AM 60.8 °F - 59.0 °F 94% 30.33 in 7.0 mi Calm Calm - N/A   Mostly Cloudy
5:45 AM 60.8 °F - 57.2 °F 88% 30.36 in 7.0 mi SSE 3.5 mph - N/A   Mostly Cloudy
6:44 AM 59.0 °F - 57.2 °F 94% 29.99 in 7.0 mi Calm Calm - N/A   Mostly Cloudy
7:50 AM 59.0 °F - 57.2 °F 94% 30.39 in 7.0 mi Calm Calm - N/A   Mostly Cloudy
8:43 AM 64.4 °F - 59.0 °F 83% 30.38 in 7.0 mi Calm Calm - N/A   Scattered Clouds
9:52 AM 69.8 °F - 59.0 °F 68% 30.04 in 7.0 mi Calm Calm - N/A   Scattered Clouds
10:41 AM 73.4 °F - 59.0 °F 61% 30.38 in 7.0 mi SSW 3.5 mph - N/A   Partly Cloudy
11:41 AM 77.0 °F - 59.0 °F 54% 30.38 in 8.0 mi SSW 3.5 mph - N/A   Partly Cloudy
12:40 PM 78.8 °F - 59.0 °F 51% 29.96 in 8.0 mi Calm Calm - N/A   Scattered Clouds
1:48 PM 80.6 °F 80.8 °F 57.2 °F 45% 30.32 in 8.0 mi SE 4.6 mph - N/A   Scattered Clouds
2:48 PM 80.6 °F 81.1 °F 59.0 °F 48% 30.30 in 10.0 mi South 3.5 mph - N/A   Scattered Clouds
3:45 PM 82.4 °F 82.0 °F 57.2 °F 42% 29.85 in 10.0 mi SW 6.9 mph - N/A   Scattered Clouds
4:43 PM 86.0 °F 85.4 °F 59.0 °F 40% 30.27 in 10.0 mi South 8.1 mph - N/A   Scattered Clouds
5:44 PM 87.8 °F 86.1 °F 55.4 °F 33% 30.24 in 10.0 mi South 3.5 mph - N/A   Scattered Clouds
6:45 PM 86.0 °F 84.2 °F 53.6 °F 33% 29.79 in 10.0 mi WSW 3.5 mph - N/A   Mostly Cloudy
7:48 PM 80.6 °F 80.8 °F 57.2 °F 45% 30.24 in 10.0 mi West 4.6 mph - N/A   Mostly Cloudy
8:45 PM 73.4 °F - 62.6 °F 69% 30.24 in 8.0 mi SE 4.6 mph - N/A   Mostly Cloudy
9:42 PM 71.6 °F - 60.8 °F 69% 29.86 in 8.0 mi East 4.6 mph - N/A   Mostly Cloudy
10:42 PM 69.8 °F - 55.4 °F 60% 30.29 in 8.0 mi NE 6.9 mph - N/A   Mostly Cloudy
11:51 PM 66.2 °F - 55.4 °F 68% 30.29 in 8.0 mi NE 6.9 mph - N/A   Mostly Cloudy